CW9197 Juva FI current weather conditions

sailwx.info

Wind from 354

Air temperature 7.2° C
Dewpoint 6.8° C

Last reported at 2016-Apr-29 16:45 UTC.
Time now 2016-Apr-29 17:47 UTC

Location: N 61°53' E 027°53'.
View on Google Maps.

See reports from other nearby stations

  
Tides and Currents Weather Stations Pressure Air Temp Water Temp Dewpoint Dewpoint Depression Visibility Wind Speed Wind Dir Waves Ship Positions
date/time (UTC)wind fromknots sea level pressurealtimeterstation pressurevisibilityair tempwater tempwave heightnotes
2016-Apr-29 16:45 354 7.2
2016-Apr-29 16:35 346 7.2
2016-Apr-29 16:25 073 1 gusting 3 7.2
2016-Apr-29 16:15 034 1 gusting 3 7.2
2016-Apr-29 16:05 048 0 gusting 1 7.8
2016-Apr-29 15:55 067 0 gusting 3 7.8
2016-Apr-29 15:45 055 0 gusting 1 7.8
2016-Apr-29 15:35 065 0 gusting 1 7.8
2016-Apr-29 15:25 064 1 gusting 3 7.8
2016-Apr-29 15:15 064 2 gusting 4 7.8
2016-Apr-29 15:05 054 0 gusting 2 7.8
2016-Apr-29 14:55 048 0 gusting 3 7.8
2016-Apr-29 14:45 033 0 gusting 3 7.8
2016-Apr-29 14:35 069 0 gusting 2 7.8
2016-Apr-29 14:25 060 1 gusting 3 7.8
2016-Apr-29 14:15 059 0 gusting 2 7.8
2016-Apr-29 14:05 014 0 gusting 1 8.3
2016-Apr-29 13:55 070 0 gusting 3 7.8
2016-Apr-29 13:45 068 0 gusting 2 7.8
2016-Apr-29 13:35 080 0 gusting 1 7.8
2016-Apr-29 13:25 036 0 gusting 2 8.3
2016-Apr-29 13:15 081 8.3
2016-Apr-29 13:05 116 8.3
2016-Apr-29 12:55 074 8.3
2016-Apr-29 12:45 170 8.3
2016-Apr-29 12:35 185 8.3
2016-Apr-29 12:25 269 8.3
2016-Apr-29 12:15 245 8.3
2016-Apr-29 12:05 265 0 gusting 1 7.8
2016-Apr-29 11:55 207 7.8
2016-Apr-29 11:45 247 7.8
2016-Apr-29 11:35 309 0 gusting 2 7.8
2016-Apr-29 11:25 265 0 gusting 1 7.8
2016-Apr-29 11:15 255 0 gusting 2 7.8
2016-Apr-29 11:05 237 0 gusting 2 7.8
2016-Apr-29 10:55 242 0 gusting 2 7.8
2016-Apr-29 10:45 243 0 gusting 2 7.2
2016-Apr-29 10:35 239 0 gusting 2 7.2
2016-Apr-29 10:25 237 0 gusting 1 7.8
2016-Apr-29 10:15 257 0 gusting 2 7.2
2016-Apr-29 10:05 227 0 gusting 3 7.2
2016-Apr-29 09:55 215 7.2
2016-Apr-29 09:45 220 0 gusting 1 7.2
2016-Apr-29 09:35 239 0 gusting 2 7.2
2016-Apr-29 09:25 239 0 gusting 1 6.7
2016-Apr-29 09:15 239 0 gusting 1 6.7
2016-Apr-29 09:05 238 0 gusting 1 6.7
2016-Apr-29 08:55 239 0 gusting 3 6.7
2016-Apr-29 08:45 238 0 gusting 1 6.7
2016-Apr-29 08:35 228 1 gusting 3 7.2
2016-Apr-29 08:25 227 0 gusting 3 7.2
2016-Apr-29 08:15 233 0 gusting 2 7.2
2016-Apr-29 08:05 223 1 gusting 2 7.2
2016-Apr-29 07:55 222 1 gusting 2 7.2
2016-Apr-29 07:45 232 1 gusting 2 7.8
2016-Apr-29 07:35 221 1 gusting 2 7.8
2016-Apr-29 07:25 226 1 gusting 3 7.8
2016-Apr-29 07:15 222 1 gusting 4 7.8
2016-Apr-29 07:05 222 2 gusting 3 7.2
2016-Apr-29 06:55 226 1 gusting 2 7.2
2016-Apr-29 06:45 222 0 gusting 2 7.2
2016-Apr-29 06:35 232 1 gusting 4 7.2
2016-Apr-29 06:25 228 1 gusting 2 7.2
2016-Apr-29 06:15 222 1 gusting 4 7.2
2016-Apr-29 06:05 218 1 gusting 3 7.2
2016-Apr-29 05:55 220 2 gusting 4 7.8
2016-Apr-29 05:45 217 2 gusting 4 7.8
2016-Apr-29 05:35 217 3 gusting 5 7.8
2016-Apr-29 05:25 221 3 gusting 5 8.3
2016-Apr-29 05:15 218 3 gusting 5 8.3
2016-Apr-29 05:05 218 2 gusting 3 8.3
2016-Apr-29 04:55 203 0 gusting 3 8.3
2016-Apr-29 04:45 203 1 gusting 2 8.3
2016-Apr-29 04:35 197 1 gusting 2 8.3
2016-Apr-29 04:25 191 0 gusting 2 8.3
2016-Apr-29 04:15 178 0 gusting 1 7.8
2016-Apr-29 04:05 190 0 gusting 2 7.8
2016-Apr-29 03:55 176 0 gusting 3 7.8
2016-Apr-29 03:45 167 7.8
2016-Apr-29 03:35 175 7.8
2016-Apr-29 03:25 173 0 gusting 1 7.8
2016-Apr-29 03:15 116 8.3
2016-Apr-29 03:05 201 0 gusting 1 8.3
2016-Apr-29 02:55 109 8.3
2016-Apr-29 02:45 189 1 gusting 2 9.4
2016-Apr-29 02:35 194 1 gusting 5 10.0
2016-Apr-29 02:25 182 3 gusting 6 10.6
2016-Apr-29 02:15 176 3 gusting 6 10.6
2016-Apr-29 02:05 181 2 gusting 6 10.6
2016-Apr-29 01:55 152 0 gusting 3 11.1
2016-Apr-29 01:45 138 2 gusting 6 11.1
2016-Apr-29 01:35 111 2 gusting 6 11.1
2016-Apr-29 01:25 100 3 gusting 7 11.1
2016-Apr-29 01:15 107 3 gusting 8 11.1
2016-Apr-29 01:05 101 4 gusting 7 11.1
2016-Apr-29 00:55 096 4 gusting 9 11.1
2016-Apr-29 00:45 099 3 gusting 9 11.1
2016-Apr-29 00:35 098 3 gusting 9 11.1
2016-Apr-29 00:25 094 3 gusting 7 11.1
2016-Apr-29 00:15 089 5 gusting 11 11.1
2016-Apr-29 00:05 089 4 gusting 10 11.1
2016-Apr-28 23:55 084 4 gusting 13 11.7
2016-Apr-28 23:45 083 5 gusting 12 11.7
2016-Apr-28 23:35 088 4 gusting 12 11.7
2016-Apr-28 23:25 083 4 gusting 10 11.7
2016-Apr-28 23:15 085 4 gusting 7 11.7
2016-Apr-28 23:05 081 6 gusting 15 11.7
2016-Apr-28 22:55 083 6 gusting 16 11.7
2016-Apr-28 22:45 085 4 gusting 9 11.7
2016-Apr-28 22:35 094 6 gusting 15 12.2
2016-Apr-28 22:25 086 6 gusting 13 12.2
2016-Apr-28 22:15 085 6 gusting 16 12.2
2016-Apr-28 22:05 078 6 gusting 12 12.2
2016-Apr-28 21:55 081 6 gusting 15 12.2
2016-Apr-28 21:45 084 7 gusting 16 12.2
2016-Apr-28 21:35 082 6 gusting 13 12.2
2016-Apr-28 21:25 090 6 gusting 12 12.2
2016-Apr-28 21:15 089 6 gusting 14 11.7
2016-Apr-28 21:05 084 6 gusting 15 12.2
2016-Apr-28 20:55 084 6 gusting 15 12.2
2016-Apr-28 20:45 075 6 gusting 14 12.2
2016-Apr-28 20:35 079 6 gusting 13 12.2
2016-Apr-28 20:25 083 6 gusting 13 12.2
2016-Apr-28 20:15 079 6 gusting 12 12.2
2016-Apr-28 20:05 079 6 gusting 14 12.8
2016-Apr-28 19:55 089 5 gusting 11 12.2
2016-Apr-28 19:45 084 6 gusting 18 12.8
2016-Apr-28 19:35 084 7 gusting 14 12.8
2016-Apr-28 19:25 078 7 gusting 17 12.8
2016-Apr-28 19:15 083 6 gusting 17 12.8
2016-Apr-28 19:05 076 6 gusting 14 12.8
2016-Apr-28 18:55 082 6 gusting 17 12.8
2016-Apr-28 18:45 079 5 gusting 12 12.8
2016-Apr-28 18:35 085 5 gusting 13 12.8
2016-Apr-28 18:25 085 6 gusting 13 12.8
2016-Apr-28 18:15 076 5 gusting 12 12.8
2016-Apr-28 18:05 080 6 gusting 16 12.8
2016-Apr-28 17:55 080 6 gusting 13 13.3
2016-Apr-28 17:45 079 6 gusting 12 13.3
2016-Apr-28 17:35 082 9 gusting 18 13.3
2016-Apr-28 17:25 079 6 gusting 13 13.3
2016-Apr-28 17:15 081 7 gusting 14 13.3
2016-Apr-28 17:05 082 6 gusting 11 13.3
2016-Apr-28 16:55 074 5 gusting 13 13.3
2016-Apr-28 16:45 080 5 gusting 10 13.9
2016-Apr-28 16:35 078 6 gusting 13 13.9
2016-Apr-28 16:25 075 5 gusting 10 13.3
2016-Apr-28 16:15 071 4 gusting 8 13.3
2016-Apr-28 16:05 078 5 gusting 11 13.3
2016-Apr-28 15:55 085 6 gusting 11 13.3
2016-Apr-28 15:45 076 6 gusting 15 13.3
2016-Apr-28 15:35 074 5 gusting 10 13.9
2016-Apr-28 15:25 079 6 gusting 12 13.9
2016-Apr-28 15:15 075 6 gusting 15 13.9
2016-Apr-28 15:05 079 6 gusting 18 13.9
2016-Apr-28 14:55 084 6 gusting 13 13.9
2016-Apr-28 14:45 078 6 gusting 13 13.9
2016-Apr-28 14:35 084 6 gusting 16 13.9
2016-Apr-28 14:25 085 5 gusting 13 13.9
2016-Apr-28 14:15 088 6 gusting 18 13.9
2016-Apr-28 14:05 078 7 gusting 15 14.4
2016-Apr-28 13:55 091 5 gusting 13 14.4
2016-Apr-28 13:45 093 5 gusting 13 14.4
2016-Apr-28 13:35 086 4 gusting 8 13.9
2016-Apr-28 13:25 078 6 gusting 14 13.3
2016-Apr-28 13:15 080 6 gusting 13 13.9
2016-Apr-28 13:05 069 4 gusting 9 13.3
2016-Apr-28 12:55 064 5 gusting 9 13.3
2016-Apr-28 12:45 068 5 gusting 9 12.8
2016-Apr-28 12:35 060 5 gusting 11 12.8
2016-Apr-28 12:25 064 4 gusting 8 12.8
2016-Apr-28 12:15 072 3 gusting 8 12.2
2016-Apr-28 12:05 058 3 gusting 6 12.2
2016-Apr-28 11:55 062 3 gusting 6 11.7
2016-Apr-28 11:45 060 3 gusting 7 11.1
2016-Apr-28 11:35 055 2 gusting 6 10.6
2016-Apr-28 11:25 067 2 gusting 5 10.0
2016-Apr-28 11:15 057 1 gusting 4 9.4
2016-Apr-28 11:05 057 1 gusting 4 8.9
2016-Apr-28 10:55 058 1 gusting 4 8.9
2016-Apr-28 10:45 052 1 gusting 4 8.9
2016-Apr-28 10:35 060 2 gusting 4 8.9
2016-Apr-28 10:25 059 2 gusting 5 8.3
2016-Apr-28 10:15 051 2 gusting 5 8.3
2016-Apr-28 10:05 057 3 gusting 5 8.3
2016-Apr-28 09:55 062 3 gusting 6 8.3
2016-Apr-28 09:45 050 1 gusting 4 7.8
2016-Apr-28 09:35 057 2 gusting 5 7.8
2016-Apr-28 09:25 051 1 gusting 4 7.8
2016-Apr-28 09:15 054 1 gusting 3 7.8
2016-Apr-28 09:05 055 0 gusting 2 7.8
2016-Apr-28 08:55 053 1 gusting 4 7.8
2016-Apr-28 08:45 058 1 gusting 4 7.8
2016-Apr-28 08:35 070 1 gusting 3 7.8
2016-Apr-28 08:25 054 1 gusting 4 7.8
2016-Apr-28 08:15 071 1 gusting 4 7.8
2016-Apr-28 08:05 062 1 gusting 5 7.8
2016-Apr-28 07:55 063 2 gusting 4 7.8
2016-Apr-28 07:45 056 1 gusting 5 7.8
2016-Apr-28 07:35 069 2 gusting 5 7.2
2016-Apr-28 07:25 074 2 gusting 6 7.2
2016-Apr-28 07:15 073 2 gusting 4 7.2
2016-Apr-28 07:05 059 1 gusting 3 7.2
2016-Apr-28 06:55 056 1 gusting 4 6.7
2016-Apr-28 06:45 080 1 gusting 4 6.7
2016-Apr-28 06:35 063 2 gusting 5 6.7
2016-Apr-28 06:25 059 1 gusting 4 6.7
2016-Apr-28 06:15 070 2 gusting 6 6.1
2016-Apr-28 06:05 053 2 gusting 6 6.1
2016-Apr-28 05:55 057 3 gusting 7 5.6
2016-Apr-28 05:45 084 1 gusting 5 5.6
2016-Apr-28 05:35 059 1 gusting 4 5.0
2016-Apr-28 05:25 067 2 gusting 7 5.0
2016-Apr-28 05:15 058 2 gusting 5 5.0
2016-Apr-28 05:05 065 1 gusting 3 4.4
2016-Apr-28 04:55 063 2 gusting 4 4.4
2016-Apr-28 04:45 044 1 gusting 4 4.4
2016-Apr-28 04:35 049 1 gusting 3 4.4
2016-Apr-28 04:25 057 1 gusting 2 3.9
2016-Apr-28 04:15 052 1 gusting 3 3.9
2016-Apr-28 04:05 053 1 gusting 4 3.9
2016-Apr-28 03:55 053 1 gusting 3 3.3
2016-Apr-28 03:45 048 1 gusting 3 3.3
2016-Apr-28 03:35 047 0 gusting 2 3.3
2016-Apr-28 03:25 049 0 gusting 2 2.8
2016-Apr-28 03:15 041 0 gusting 1 2.8
2016-Apr-28 03:05 050 0 gusting 2 2.8
2016-Apr-28 02:55 041 0 gusting 3 2.2
2016-Apr-28 02:45 051 0 gusting 1 2.2
2016-Apr-28 02:35 020 2.2
2016-Apr-28 02:25 019 1 gusting 4 2.2
2016-Apr-28 02:15 048 0 gusting 1 2.2
2016-Apr-28 02:05 016 1 gusting 3 2.2
2016-Apr-28 01:55 036 2.2
2016-Apr-28 01:45 034 0 gusting 1 2.2
2016-Apr-28 01:35 034 2.2
2016-Apr-28 01:25 011 0 gusting 1 2.8
2016-Apr-28 01:15 046 2.8
2016-Apr-28 01:05 049 0 gusting 1 2.8
2016-Apr-28 00:55 025 2.8
2016-Apr-28 00:45 048 0 gusting 2 2.8
2016-Apr-28 00:35 023 0 gusting 1 2.8
2016-Apr-28 00:25 059 1 gusting 2 2.8
2016-Apr-28 00:15 066 1 gusting 4 2.8
2016-Apr-28 00:05 061 2 gusting 4 2.8
2016-Apr-27 23:55 048 0 gusting 1 2.2
2016-Apr-27 23:45 056 1 gusting 2 2.2
2016-Apr-27 23:35 047 0 gusting 1 2.2
2016-Apr-27 23:25 030 0 gusting 3 2.2
2016-Apr-27 23:15 034 2.2
2016-Apr-27 23:05 041 0 gusting 1 2.8
2016-Apr-27 22:55 055 2.8
2016-Apr-27 22:45 075 2.2
2016-Apr-27 22:35 053 2.2
2016-Apr-27 22:25 019 2.8
2016-Apr-27 22:15 019 0 gusting 1 2.8
2016-Apr-27 22:05 018 0 gusting 1 2.2
2016-Apr-27 21:55 045 0 gusting 1 2.2
2016-Apr-27 21:45 033 0 gusting 1 2.8
2016-Apr-27 21:35 052 0 gusting 1 2.8
2016-Apr-27 21:25 055 2.8
2016-Apr-27 21:15 315 2.8
2016-Apr-27 21:05 2.8
2016-Apr-27 20:55 044 2.8
2016-Apr-27 20:45 045 2.8
2016-Apr-27 20:35 2.8
2016-Apr-27 20:25 029 2.8
2016-Apr-27 20:15 026 2.8
2016-Apr-27 20:05 058 2.8
2016-Apr-27 19:55 3.3
2016-Apr-27 19:45 2.8
2016-Apr-27 19:35 031 2.8
2016-Apr-27 19:25 2.8
2016-Apr-27 19:15 061 2.8
2016-Apr-27 19:05 074 2.8
2016-Apr-27 18:55 067 2.8
2016-Apr-27 18:45 2.8
2016-Apr-27 18:35 2.8
2016-Apr-27 18:25 3.3
2016-Apr-27 18:15 225 3.3
2016-Apr-27 18:05 228 3.9
2016-Apr-27 17:55 218 0 gusting 1 3.9
2016-Apr-27 17:45 215 4.4
2016-Apr-27 17:35 198 0 gusting 1 4.4
2016-Apr-27 17:25 203 0 gusting 2 5.0
2016-Apr-27 17:15 206 1 gusting 2 5.0
2016-Apr-27 17:05 208 0 gusting 2 5.0